Location: State Camp
(41.2367°N, 77.7828°W)
Time: 02:46:36
(UTC-04:00)

Daily predictions for brighter satellites

Satellite Brightness Start Highest point End
(mag) Time Altitude Azimuth Time Altitude Azimuth Time Altitude Azimuth
Cosmos 1844 Rocket 4.4 00:07:28 10° N 00:10:31 26° NNE 00:10:31 26° NNE
Cosmos 2360 Rocket 3.9 00:17:04 27° NNE 00:17:04 27° NNE 00:19:35 10° NNE
Cosmos 2263 Rocket 4.3 00:38:09 10° NW 00:39:56 19° WNW 00:39:56 19° WNW
Cosmos 2322 Rocket 4.3 00:45:08 19° NW 00:45:34 19° NW 00:49:29 10° N
Cosmos 2333 Rocket 4.5 00:51:47 17° NE 00:51:47 17° NE 00:53:07 10° NE
COSMOS 2428 4.5 01:07:05 28° NNE 01:07:05 28° NNE 01:09:43 10° NNE
ATLAS CENTAUR R/B 4.4 01:07:38 65° WSW 01:09:37 78° NW 01:36:56 10° NE
Cosmos 2278 Rocket 4.0 01:21:20 10° NNW 01:23:57 28° N 01:23:57 28° N
ATLAS 3B R/B 3.3 01:54:42 58° NE 01:54:42 58° NE 02:00:29 10° NE
CZ-2C R/B 4.4 01:54:08 10° N 01:56:55 28° NNW 01:56:55 28° NNW
COSMOS 2455 4.0 02:15:11 38° N 02:15:11 38° N 02:19:07 10° NNE
Cosmos 2219 Rocket 3.9 02:21:35 26° NNW 02:21:35 26° NNW 02:24:46 10° N
SL-16 R/B 3.4 02:32:46 40° NNE 02:32:46 40° NNE 02:36:20 10° NNE
Cosmos 2333 Rocket 3.8 02:33:47 29° NNW 02:33:47 29° NNW 02:37:24 10° N
Cosmos 2237 Rocket 3.7 02:37:53 30° NNW 02:37:53 30° NNW 02:41:27 10° N
Resurs 1-4 Rocket 4.4 02:39:16 10° NE 02:42:14 15° E 02:42:32 15° E
USA 238 DEB 3.9 02:44:48 71° NNE 02:44:48 71° NNE 02:51:01 10° NE
USA 238 3.9 02:44:55 71° NNE 02:44:55 71° NNE 02:51:07 10° NE
USA 234 4.1 02:40:22 10° ENE 02:45:16 38° ESE 02:45:16 38° ESE
CZ-4C R/B 2.8 03:01:21 52° NNE 03:01:21 52° NNE 03:05:55 10° NNE
NOSS 3-2 (A) 4.0 03:01:04 50° E 03:01:04 50° E 03:06:37 10° NE
CZ-3A R/B 4.0 03:04:30 50° SSE 03:07:13 63° ESE 03:55:45 10° NE
ATLAS 5 CENTAUR R/B 4.2 03:09:56 14° ESE 03:09:56 14° ESE 03:12:07 10° ENE
Cosmos 1603 4.1 03:14:06 62° NE 03:14:06 62° NE 03:18:52 10° NNE
NOSS 3-2 (C) 3.8 03:16:42 55° ESE 03:16:42 55° ESE 03:22:52 10° NE
S3M 3.9 03:23:09 83° N 03:23:09 83° N 03:29:13 10° N
SL-16 R/B 3.2 03:20:43 32° SE 03:23:15 52° ENE 03:29:14 10° N
Meteor 2-3 Rocket 4.4 03:21:39 10° N 03:27:17 51° ENE 03:28:49 40° ESE
IRS-1C 4.4 03:22:01 10° NNE 03:26:32 64° N 03:26:32 64° N
Cosmos 1553 Rocket 4.0 03:43:22 62° WNW 03:43:22 62° WNW 03:49:15 10° N
Cosmos 1943 3.4 03:43:43 59° SE 03:44:09 62° ESE 03:49:44 10° NNE
ATLAS CENTAUR R/B 2.5 03:40:20 10° NNW 03:43:55 43° NNE 03:43:55 43° NNE
ATLAS 3B R/B 4.3 03:41:56 22° WNW 03:44:39 26° NW 03:50:41 10° NNE
CZ-2D R/B 2.5 03:39:35 10° NNE 03:44:46 55° E 03:45:24 51° SE
Cosmos 1386 Rocket 4.4 03:39:16 10° N 03:45:36 86° E 03:46:47 62° SSE
Cosmos 1745 Rocket 3.9 03:40:56 10° NNW 03:47:16 69° W 03:47:26 69° WSW
Cosmos 1726 4.0 03:50:12 27° N 03:50:12 27° N 03:52:03 10° N
Cosmos 494 Rocket 4.2 03:49:58 62° SE 03:50:19 63° ESE 03:55:32 10° NNE
Cosmos 1300 4.5 03:54:17 26° NNW 03:54:17 26° NNW 03:56:08 10° N
UNK 3.8 03:52:33 73° NE 03:52:33 73° NE 03:56:57 10° N
Cosmos 2369 Rocket 2.3 03:49:58 10° NNW 03:55:36 74° ENE 03:59:34 20° SSE
Spot 4 Rocket 4.2 03:57:57 10° N 04:02:51 56° WNW 04:02:51 56° WNW
IRS-1D 3.4 03:58:12 10° NNE 04:03:26 83° WNW 04:03:55 73° SW
Cosmos 1455 3.2 04:05:19 42° ESE 04:05:34 42° E 04:09:17 10° NNE
ADEOS 4.0 04:03:12 10° N 04:08:05 46° WNW 04:08:05 46° WNW
Cosmos 389 Rocket 4.5 04:11:38 21° ESE 04:12:36 24° E 04:15:28 10° NE
BREEZE-M DEB (TANK) 3.8 04:12:18 29° NW 04:14:12 65° NNE 04:21:33 10° ESE
Cosmos 1733 Rocket 3.8 04:09:58 10° N 04:14:15 50° E 04:16:56 21° SSE
ARIANE 5 R/B 2.6 04:10:00 10° N 04:15:09 61° WNW 04:15:40 57° W
SL-16 R/B 4.1 04:14:39 15° WNW 04:15:34 15° NW 04:18:50 10° NNW
Cosmos 1707 Rocket 4.3 04:17:05 41° NW 04:17:05 41° NW 04:20:41 10° N
Cosmos 1331 Rocket 3.9 04:12:07 10° NNW 04:17:20 63° WSW 04:17:46 60° SW
Cosmos 1943 Rocket 3.0 04:16:54 10° NNW 04:22:28 52° ENE 04:27:57 10° SE
Resurs 1-4 Rocket 2.1 04:17:18 10° N 04:22:32 67° WNW 04:23:37 53° SW
Cosmos 2263 4.1 04:21:26 10° NNW 04:27:16 86° WSW 04:33:03 10° SSE
Cosmos 1184 Rocket 3.8 04:24:57 10° N 04:28:17 48° ENE 04:29:40 29° SE
USA 234 3.5 04:23:11 10° NE 04:29:37 60° NW 04:32:36 33° W
SeaSat 1 2.5 04:26:23 10° SSE 04:31:18 78° ENE 04:36:15 10° NNW
ERS-2 3.9 04:33:31 10° NNW 04:35:33 21° NW 04:35:33 21° NW
ADEOS II 4.3 04:34:30 10° NE 04:38:35 22° E 04:42:39 10° SE
Okean O Rocket 2.0 04:35:09 10° NNE 04:39:36 64° ESE 04:42:13 24° S
Cosmos 2315 Rocket 4.0 04:39:23 33° SSW 04:42:12 61° W 04:48:25 10° N
Cosmos 1408 4.3 04:39:23 10° N 04:42:49 34° ENE 04:46:16 10° SE
Cosmos 1825 3.7 04:40:18 10° N 04:43:50 36° ENE 04:47:21 10° SE
Cosmos 1862 4.5 04:41:22 10° N 04:45:12 43° ENE 04:48:58 10° SSE
Thor Agena Rocket 4.5 04:40:21 10° SE 04:45:17 49° ENE 04:50:18 10° N
BREEZE-M DEB (TANK) 4.2 04:43:47 19° W 04:47:48 32° NW 04:50:59 10° NNE
CZ-4C R/B 4.1 04:46:31 13° WNW 04:49:31 19° NNW 04:53:50 10° NNE
EO 1 Del DPAF 4.0 04:50:47 34° WNW 04:50:47 34° WNW 04:53:50 10° NNW
CZ-2D R/B 3.6 04:46:46 10° N 04:51:07 58° WNW 04:52:35 37° SW
UNKNOWN OBJECT B 3.3 04:48:05 10° N 04:51:32 37° WNW 04:51:41 37° W
ATLAS 5 CENTAUR R/B 1.8 04:51:30 35° SW 04:53:34 73° NW 04:58:49 10° NNE
CZ-4B R/B 3.2 04:50:13 10° NNE 04:53:49 58° E 04:56:33 17° S
Sich 1 Rocket 3.6 04:50:15 10° N 04:54:40 78° E 04:59:03 10° S
BREEZE-M DEB (TANK) 2.6 04:54:09 30° NNW 04:54:56 47° NNE 04:57:20 10° ESE
Cosmos 1869 3.3 04:55:35 38° SW 04:56:51 58° W 05:00:47 10° N
IRS-1C Rocket 4.0 04:51:58 10° NNE 04:57:17 83° WNW 05:01:15 18° SSW
Cosmos 1703 Rocket 4.4 04:55:11 10° S 04:59:31 52° E 05:03:53 10° NNE
Cosmos 1933 3.6 04:56:44 13° S 05:00:17 68° E 05:04:22 10° NNE
SL-27 R/B 2.6 05:00:14 25° S 05:02:13 76° ESE 05:05:52 10° NNE
SL-16 R/B 3.5 05:05:49 23° WSW 05:07:09 25° W 05:12:08 10° NW
Aureole 3 Rocket 4.4 05:01:32 10° S 05:08:52 63° E 05:14:05 10° NNE
ADEOS Rocket 4.2 05:01:30 10° NNE 05:09:08 60° E 05:16:44 10° S
Cosmos 1892 4.2 05:06:32 10° NW 05:08:51 20° WNW 05:08:51 20° WNW
CZ-2C R/B 3.6 05:05:25 10° S 05:09:47 58° W 05:14:11 10° NNW
CENTAUR R/B 2.5 05:05:36 20° SSW 05:10:05 90° NW 05:16:59 10° NE
Atlas Centaur 2 4.0 05:11:13 10° S 05:12:54 12° SSE 05:14:42 10° SE
ARGOS Delta rocket 4.2 05:14:21 10° N 05:18:25 37° WNW 05:20:54 20° SW
Abrixas rocket 4.2 05:17:47 10° NW 05:20:41 26° N 05:23:34 10° ENE
PSLV R/B 4.0 05:18:05 10° NNE 05:22:28 67° ESE 05:26:49 10° S
CZ-2D R/B 3.6 05:20:42 10° NNW 05:24:25 20° WNW 05:26:44 15° W
COSMOS 2406 3.2 05:19:14 11° SSW 05:24:50 85° WNW 05:30:39 10° NNE
Cosmos 1862 Rocket 4.5 05:23:05 20° WSW 05:25:14 30° WNW 05:29:07 10° NNW
MOZ.5/SAFIR/RUBIN 5/SL-8 4.3 05:22:12 10° SSW 05:26:28 37° W 05:30:47 10° NNW
Nadezhda 1 Rocket 4.0 05:26:29 10° SSW 05:32:41 71° W 05:39:02 10° N
Okean 2 Rocket 3.3 05:29:23 10° N 05:33:54 80° E 05:38:25 10° S
CZ-4B DEB 4.4 05:32:17 10° N 05:37:36 53° WNW 05:42:53 10° SW
PSLV R/B 3.2 05:35:27 14° W 05:38:20 83° S 05:41:44 10° E
Cosmos 2369 Rocket 3.7 05:35:55 10° WNW 05:38:55 15° W 05:41:03 12° WSW
CZ-4B R/B 3.5 05:35:59 10° N 05:41:00 44° WNW 05:46:00 10° SW
Cosmos 1455 4.2 05:40:22 12° W 05:41:33 13° WNW 05:43:26 10° NW
Okean 1-7 3.0 05:37:56 10° S 05:42:14 83° W 05:46:36 10° N
Cosmos 407 Rocket 3.8 05:39:19 10° S 05:44:28 74° ESE 05:49:45 10° NNE
Meteor PRIRODA 3.7 05:42:04 10° NNE 05:45:50 85° ESE 05:49:36 10° SSW
Cosmos 389 Rocket 4.2 05:45:45 13° WSW 05:47:31 17° WNW 05:49:55 10° NNW
Cosmos 2154 Rocket 4.0 05:51:19 10° NNW 05:57:35 67° W 06:03:51 10° S
CZ-4B R/B 4.5 05:53:48 10° NNE 05:58:20 72° E 06:02:47 10° S
Cosmos 1782 Rocket 3.9 05:54:55 10° NNW 05:59:01 42° W 06:03:05 10° SSW
BREEZE-M DEB (TANK) 3.3 06:00:46 10° WSW 06:03:24 79° NNW 06:09:29 10° ENE
CSL-04 DEB 4.5 05:59:39 10° N 06:03:50 75° WNW 06:08:06 10° SSW
AVUM R/B 3.4 06:01:32 10° SSW 06:04:41 75° ESE 06:08:01 10° NNE
Cosmos 1943 Rocket 3.3 06:01:33 10° NW 06:05:46 22° W 06:09:58 10° SSW
